Location: Grisols
(45.0093°N, 3.1167°E)
Time: 03:11:40
(UTC+00:00)

Lacrosse 5 rocket - Pass Details

Date: 21 October 2019
Orbit: 459 x 639 km, 57.0° (Epoch: 17 November)

Event Time Altitude Azimuth Distance (km) Brightness Sun altitude
Rises 17:31:14 0° 295° (WNW) 2,549 5.8 -7.4°
Reaches altitude 10° 17:34:03 10° 272° (W) 1,695 5.5 -7.9°
Maximum altitude 17:36:18 15° 236° (SW) 1,420 4.5 -8.3°
Drops below altitude 10° 17:38:37 10° 199° (SSW) 1,745 4.2 -8.7°
Sets 17:41:36 0° 176° (S) 2,672 4.9 -9.3°
